| time (UTC) | temp F | wind direction | speed MPH | gust MPH | rain 1hr in | rain 24hr in | rain mn in | humidity % | barometer mb |
| 20260507181945 | 66 | 46 | 2.0 | 5.0 | 0.00 | 0.02 | 0.02 | 29 | 1006.1 |
| 20260507181442 | 65 | 348 | 2.0 | 4.0 | 0.00 | 0.02 | 0.02 | 32 | 1006.3 |
| 20260507180938 | 64 | 336 | 2.0 | 5.0 | 0.00 | 0.02 | 0.02 | 28 | 1006.1 |
| 20260507180435 | 65 | 20 | 4.0 | 6.0 | 0.00 | 0.02 | 0.02 | 29 | 1006.2 |
| 20260507175931 | 66 | 1 | 2.0 | 4.0 | 0.00 | 0.02 | 0.02 | 30 | 1006.1 |
| 20260507175428 | 65 | 288 | 1.0 | 5.0 | 0.00 | 0.02 | 0.02 | 31 | 1006.2 |
| 20260507174926 | 64 | 2 | 2.0 | 4.0 | 0.00 | 0.02 | 0.02 | 29 | 1006.2 |
| 20260507174423 | 64 | 337 | 3.0 | 6.0 | 0.00 | 0.02 | 0.02 | 30 | 1006.3 |
| 20260507173920 | 64 | 269 | 1.0 | 4.0 | 0.00 | 0.02 | 0.02 | 30 | 1006.3 |
| 20260507173417 | 64 | 17 | 2.0 | 4.0 | 0.00 | 0.02 | 0.02 | 29 | 1006.1 |
| 20260507172914 | 64 | 36 | 5.0 | 5.0 | 0.00 | 0.02 | 0.02 | 33 | 1006.3 |
| 20260507172411 | 64 | 351 | 2.0 | 12.0 | 0.00 | 0.02 | 0.02 | 35 | 1006.4 |
| 20260507171906 | 65 | 356 | 1.0 | 4.0 | 0.00 | 0.02 | 0.02 | 36 | 1006.3 |
| 20260507171403 | 64 | 62 | 2.0 | 5.0 | 0.00 | 0.02 | 0.02 | 30 | 1006.3 |
| 20260507170900 | 65 | 234 | 2.0 | 3.0 | 0.00 | 0.02 | 0.02 | 32 | 1006.6 |
| 20260507170357 | 65 | 336 | 2.0 | 3.0 | 0.00 | 0.02 | 0.02 | 30 | 1006.8 |
| 20260507165853 | 65 | 294 | 2.0 | 4.0 | 0.00 | 0.02 | 0.02 | 30 | 1006.9 |
| 20260507165349 | 64 | 260 | 2.0 | 5.0 | 0.00 | 0.02 | 0.02 | 32 | 1006.7 |
| 20260507164845 | 65 | 113 | 2.0 | 3.0 | 0.00 | 0.02 | 0.02 | 36 | 1006.9 |
| 20260507164342 | 64 | 231 | 5.0 | 5.0 | 0.00 | 0.02 | 0.02 | 32 | 1006.7 |
| 20260507163840 | 63 | 269 | 0.0 | 5.0 | 0.00 | 0.02 | 0.02 | 35 | 1006.8 |
| 20260507163337 | 64 | 218 | 4.0 | 9.0 | 0.00 | 0.02 | 0.02 | 35 | 1006.8 |
| 20260507162833 | 63 | 17 | 2.0 | 4.0 | 0.00 | 0.02 | 0.02 | 41 | 1007.1 |
| 20260507162329 | 62 | 51 | 2.0 | 3.0 | 0.00 | 0.02 | 0.02 | 45 | 1007.0 |
| 20260507161826 | 62 | 5 | 3.0 | 5.0 | 0.00 | 0.02 | 0.02 | 43 | 1007.1 |
| 20260507161322 | 64 | 329 | 4.0 | 4.0 | 0.00 | 0.02 | 0.02 | 45 | 1007.1 |
| 20260507160819 | 62 | 146 | 1.0 | 4.0 | 0.00 | 0.02 | 0.02 | 48 | 1006.9 |
| 20260507160315 | 62 | 244 | 4.0 | 5.0 | 0.00 | 0.02 | 0.02 | 45 | 1007.2 |
| 20260507155811 | 60 | 274 | 2.0 | 3.0 | 0.00 | 0.02 | 0.02 | 51 | 1007.3 |
| 20260507155307 | 60 | 228 | 2.0 | 5.0 | 0.00 | 0.02 | 0.02 | 47 | 1007.3 |
| 20260507154804 | 61 | 342 | 3.0 | 5.0 | 0.00 | 0.02 | 0.02 | 47 | 1007.4 |
| 20260507154301 | 61 | 341 | 2.0 | 2.0 | 0.00 | 0.02 | 0.02 | 49 | 1007.3 |
| 20260507153758 | 62 | 323 | 0.0 | 2.0 | 0.00 | 0.02 | 0.02 | 46 | 1007.2 |
| 20260507153254 | 60 | 41 | 2.0 | 5.0 | 0.00 | 0.02 | 0.02 | 51 | 1007.5 |
| 20260507152751 | 60 | 239 | 2.0 | 3.0 | 0.00 | 0.02 | 0.02 | 47 | 1007.5 |
| 20260507152248 | 60 | 338 | 3.0 | 4.0 | 0.00 | 0.02 | 0.02 | 49 | 1007.6 |
| 20260507151743 | 60 | 57 | 2.0 | 5.0 | 0.00 | 0.02 | 0.02 | 47 | 1007.7 |
| 20260507151240 | 60 | 300 | 2.0 | 5.0 | 0.00 | 0.02 | 0.02 | 47 | 1007.6 |
| 20260507150737 | 61 | 352 | 1.0 | 3.0 | 0.00 | 0.02 | 0.02 | 45 | 1007.6 |
| 20260507150234 | 61 | 155 | 1.0 | 2.0 | 0.00 | 0.02 | 0.02 | 46 | 1007.8 |
| 20260507145730 | 62 | 250 | 2.0 | 4.0 | 0.00 | 0.02 | 0.02 | 44 | 1007.8 |
| 20260507145226 | 62 | 5 | 2.0 | 4.0 | 0.00 | 0.02 | 0.02 | 44 | 1007.8 |
| 20260507144723 | 62 | 98 | 0.0 | 6.0 | 0.00 | 0.02 | 0.02 | 41 | 1008.0 |
| 20260507144221 | 62 | 16 | 1.0 | 5.0 | 0.00 | 0.02 | 0.02 | 44 | 1008.0 |
| 20260507143717 | 62 | 163 | 0.0 | 3.0 | 0.00 | 0.02 | 0.02 | 45 | 1007.8 |
| 20260507143215 | 63 | 45 | 1.0 | 5.0 | 0.00 | 0.02 | 0.02 | 44 | 1007.7 |
| 20260507142710 | 62 | 337 | 0.0 | 3.0 | 0.00 | 0.02 | 0.02 | 45 | 1007.7 |
| 20260507142207 | 61 | 98 | 3.0 | 4.0 | 0.00 | 0.02 | 0.02 | 48 | 1007.8 |
| 20260507141703 | 62 | 54 | 4.0 | 4.0 | 0.00 | 0.02 | 0.02 | 47 | 1007.8 |
| 20260507141200 | 62 | 337 | 2.0 | 4.0 | 0.00 | 0.02 | 0.02 | 46 | 1008.0 |
| 20260507140657 | 62 | 279 | 2.0 | 2.0 | 0.00 | 0.02 | 0.02 | 50 | 1007.7 |
| 20260507140154 | 61 | 315 | 2.0 | 4.0 | 0.00 | 0.02 | 0.02 | 48 | 1007.6 |
| 20260507135651 | 60 | 239 | 1.0 | 2.0 | 0.00 | 0.02 | 0.02 | 47 | 1007.6 |
| 20260507135149 | 59 | 62 | 2.0 | 4.0 | 0.00 | 0.02 | 0.02 | 49 | 1007.7 |
| 20260507134645 | 60 | 31 | 4.0 | 5.0 | 0.00 | 0.02 | 0.02 | 47 | 1007.6 |
| 20260507134141 | 61 | 229 | 2.0 | 4.0 | 0.00 | 0.02 | 0.02 | 44 | 1007.8 |
| 20260507133637 | 61 | 128 | 1.0 | 2.0 | 0.00 | 0.02 | 0.02 | 50 | 1007.8 |
| 20260507133135 | 60 | 47 | 2.0 | 3.0 | 0.00 | 0.02 | 0.02 | 55 | 1008.0 |
| 20260507132632 | 60 | 43 | 3.0 | 3.0 | 0.00 | 0.02 | 0.02 | 48 | 1008.0 |
| 20260507132128 | 59 | 0 | 3.0 | 3.0 | 0.00 | 0.02 | 0.02 | 50 | 1008.2 |
| 20260507131624 | 58 | 108 | 0.0 | 3.0 | 0.00 | 0.02 | 0.02 | 52 | 1008.2 |
| 20260507131122 | 57 | 36 | 1.0 | 3.0 | 0.00 | 0.02 | 0.02 | 57 | 1008.0 |
| 20260507130619 | 57 | 85 | 2.0 | 3.0 | 0.00 | 0.02 | 0.02 | 57 | 1008.2 |
| 20260507130117 | 57 | 47 | 1.0 | 2.0 | 0.00 | 0.02 | 0.02 | 56 | 1008.3 |
| 20260507125615 | 56 | 224 | 0.0 | 3.0 | 0.00 | 0.02 | 0.02 | 59 | 1008.3 |
| 20260507125112 | 55 | 80 | 1.0 | 3.0 | 0.00 | 0.02 | 0.02 | 62 | 1008.4 |
| 20260507124608 | 55 | 69 | 2.0 | 4.0 | 0.00 | 0.02 | 0.02 | 64 | 1008.5 |
| 20260507124107 | 55 | 48 | 0.0 | 3.0 | 0.00 | 0.02 | 0.02 | 68 | 1008.5 |
| 20260507123604 | 55 | 15 | 1.0 | 3.0 | 0.00 | 0.02 | 0.02 | 62 | 1008.5 |
| 20260507123101 | 54 | 55 | 0.0 | 2.0 | 0.00 | 0.02 | 0.02 | 65 | 1008.6 |
| 20260507122556 | 54 | 31 | 1.0 | 2.0 | 0.00 | 0.02 | 0.02 | 70 | 1008.3 |
| 20260507122052 | 53 | 38 | 2.0 | 5.0 | 0.00 | 0.02 | 0.02 | 65 | 1008.3 |
| 20260507121548 | 53 | 9 | 2.0 | 5.0 | 0.00 | 0.02 | 0.02 | 64 | 1008.5 |
| 20260507121044 | 53 | 17 | 2.0 | 2.0 | 0.00 | 0.02 | 0.02 | 70 | 1008.4 |
| 20260507120540 | 53 | 36 | 2.0 | 3.0 | 0.00 | 0.02 | 0.02 | 70 | 1008.4 |
| 20260507120038 | 53 | 66 | 0.0 | 2.0 | 0.00 | 0.02 | 0.02 | 71 | 1008.4 |
| 20260507115534 | 52 | 30 | 2.0 | 2.0 | 0.00 | 0.02 | 0.02 | 73 | 1008.2 |
| 20260507115030 | 52 | 130 | 0.0 | 3.0 | 0.00 | 0.02 | 0.02 | 75 | 1008.5 |
| 20260507114526 | 50 | 67 | 2.0 | 2.0 | 0.00 | 0.02 | 0.02 | 75 | 1008.5 |
| 20260507114023 | 50 | 20 | 1.0 | 3.0 | 0.00 | 0.02 | 0.02 | 76 | 1008.2 |
| 20260507113520 | 49 | 56 | 0.0 | 2.0 | 0.00 | 0.02 | 0.02 | 79 | 1008.3 |
| 20260507113017 | 49 | 41 | 0.0 | 2.0 | 0.00 | 0.02 | 0.02 | 81 | 1008.1 |
| 20260507112515 | 48 | 61 | 1.0 | 2.0 | 0.00 | 0.02 | 0.02 | 81 | 1008.1 |
| 20260507112012 | 48 | 59 | 2.0 | 2.0 | 0.00 | 0.02 | 0.02 | 82 | 1008.3 |
| 20260507111510 | 48 | 68 | 2.0 | 2.0 | 0.00 | 0.02 | 0.02 | 82 | 1008.3 |
| 20260507111005 | 48 | 96 | 2.0 | 2.0 | 0.00 | 0.02 | 0.02 | 83 | 1008.6 |
| 20260507110502 | 48 | 80 | 0.0 | 2.0 | 0.00 | 0.02 | 0.02 | 84 | 1008.5 |
| 20260507105958 | 48 | 17 | 0.0 | 2.0 | 0.00 | 0.02 | 0.02 | 83 | 1008.2 |
| 20260507105455 | 48 | 89 | 2.0 | 2.0 | 0.00 | 0.02 | 0.02 | 85 | 1008.1 |
| 20260507104951 | 48 | 63 | 0.0 | 2.0 | 0.00 | 0.02 | 0.02 | 84 | 1007.7 |
| 20260507104449 | 48 | 78 | 1.0 | 3.0 | 0.00 | 0.02 | 0.02 | 83 | 1007.9 |
| 20260507103944 | 48 | 56 | 1.0 | 2.0 | 0.00 | 0.02 | 0.02 | 82 | 1007.7 |
| 20260507103441 | 48 | 31 | 1.0 | 3.0 | 0.00 | 0.02 | 0.02 | 84 | 1007.9 |
| 20260507102937 | 48 | 14 | 0.0 | 2.0 | 0.00 | 0.02 | 0.02 | 83 | 1007.7 |
| 20260507102434 | 48 | 53 | 2.0 | 2.0 | 0.00 | 0.02 | 0.02 | 83 | 1007.7 |
| 20260507101931 | 48 | 52 | 0.0 | 2.0 | 0.00 | 0.02 | 0.02 | 84 | 1007.6 |
| 20260507101426 | 48 | 58 | 2.0 | 2.0 | 0.00 | 0.02 | 0.02 | 84 | 1007.6 |
| 20260507100922 | 48 | 20 | 2.0 | 3.0 | 0.00 | 0.02 | 0.02 | 84 | 1007.9 |
| 20260507100420 | 48 | 89 | 0.0 | 2.0 | 0.00 | 0.02 | 0.02 | 85 | 1007.7 |
| 20260507095918 | 48 | 55 | 3.0 | 3.0 | 0.00 | 0.02 | 0.02 | 85 | 1007.9 |
| 20260507095415 | 48 | 29 | 0.0 | 2.0 | 0.00 | 0.02 | 0.02 | 86 | 1008.0 |
| 20260507094912 | 48 | 20 | 2.0 | 4.0 | 0.00 | 0.02 | 0.02 | 85 | 1007.6 |
| 20260507094408 | 48 | 88 | 0.0 | 3.0 | 0.00 | 0.02 | 0.02 | 86 | 1007.7 |
| 20260507093905 | 48 | 5 | 1.0 | 2.0 | 0.00 | 0.02 | 0.02 | 87 | 1007.9 |
| 20260507093404 | 48 | 47 | 0.0 | 3.0 | 0.00 | 0.02 | 0.02 | 87 | 1007.7 |
| 20260507092902 | 48 | 35 | 0.0 | 2.0 | 0.00 | 0.02 | 0.02 | 88 | 1007.7 |
| 20260507092357 | 48 | 81 | 0.0 | 2.0 | 0.00 | 0.02 | 0.02 | 89 | 1007.8 |
| 20260507091854 | 48 | 357 | 2.0 | 3.0 | 0.00 | 0.02 | 0.02 | 89 | 1007.8 |
| 20260507091350 | 48 | 13 | 1.0 | 2.0 | 0.00 | 0.02 | 0.02 | 90 | 1007.9 |
| 20260507090846 | 48 | 53 | 0.0 | 2.0 | 0.00 | 0.02 | 0.02 | 91 | 1007.8 |
| 20260507090343 | 48 | 14 | 1.0 | 2.0 | 0.00 | 0.02 | 0.02 | 91 | 1007.5 |
| 20260507085840 | 48 | 89 | 2.0 | 2.0 | 0.00 | 0.02 | 0.02 | 91 | 1007.4 |
| 20260507085336 | 48 | 22 | 0.0 | 1.0 | 0.00 | 0.02 | 0.02 | 90 | 1007.5 |
| 20260507084834 | 48 | 37 | 0.0 | 2.0 | 0.00 | 0.02 | 0.02 | 90 | 1007.6 |
| 20260507084330 | 48 | 231 | 1.0 | 2.0 | 0.00 | 0.02 | 0.02 | 89 | 1007.7 |
| 20260507083828 | 48 | 58 | 0.0 | 2.0 | 0.00 | 0.02 | 0.02 | 89 | 1007.3 |
| 20260507083324 | 48 | 87 | 0.0 | 0.0 | 0.00 | 0.02 | 0.02 | 88 | 1007.6 |
| 20260507082820 | 48 | 48 | 0.0 | 2.0 | 0.00 | 0.02 | 0.02 | 88 | 1007.2 |
| 20260507082316 | 48 | 55 | 0.0 | 2.0 | 0.02 | 0.02 | 0.02 | 88 | 1007.5 |
| 20260507081814 | 49 | 16 | 1.0 | 2.0 | 0.02 | 0.02 | 0.02 | 89 | 1007.5 |
| 20260507081309 | 49 | 55 | 0.0 | 2.0 | 0.02 | 0.02 | 0.02 | 87 | 1007.3 |
| 20260507080806 | 49 | 40 | 0.0 | 1.0 | 0.02 | 0.02 | 0.02 | 87 | 1007.3 |
| 20260507080302 | 50 | 69 | 2.0 | 2.0 | 0.00 | 0.01 | 0.01 | 86 | 1007.7 |
| 20260507075757 | 50 | 39 | 1.0 | 2.0 | 0.00 | 0.01 | 0.01 | 85 | 1007.5 |
| 20260507075254 | 50 | 5 | 1.0 | 2.0 | 0.00 | 0.01 | 0.01 | 85 | 1007.8 |
| 20260507074750 | 50 | 232 | 3.0 | 4.0 | 0.00 | 0.01 | 0.01 | 84 | 1007.6 |
| 20260507074249 | 50 | 60 | 0.0 | 2.0 | 0.00 | 0.01 | 0.01 | 86 | 1007.6 |
| 20260507073745 | 50 | 78 | 0.0 | 3.0 | 0.00 | 0.01 | 0.01 | 84 | 1007.0 |
| 20260507073241 | 50 | 57 | 0.0 | 2.0 | 0.00 | 0.01 | 0.01 | 85 | 1007.2 |
| 20260507072739 | 50 | 21 | 1.0 | 2.0 | 0.00 | 0.01 | 0.01 | 84 | 1007.2 |
| 20260507072237 | 50 | 48 | 0.0 | 3.0 | 0.00 | 0.01 | 0.01 | 85 | 1006.9 |
| 20260507071734 | 50 | 11 | 2.0 | 2.0 | 0.00 | 0.01 | 0.01 | 84 | 1007.0 |
| 20260507071230 | 50 | 57 | 2.0 | 3.0 | 0.00 | 0.01 | 0.01 | 84 | 1007.3 |
| 20260507070727 | 50 | 55 | 0.0 | 3.0 | 0.00 | 0.01 | 0.01 | 84 | 1007.2 |
| 20260507070224 | 50 | 17 | 0.0 | 3.0 | 0.00 | 0.01 | 0.01 | 86 | 1007.1 |
| 20260507065721 | 50 | 18 | 2.0 | 2.0 | 0.00 | 0.01 | 0.01 | 86 | 1006.8 |
| 20260507065218 | 50 | 13 | 1.0 | 3.0 | 0.00 | 0.01 | 0.01 | 86 | 1006.9 |
| 20260507064715 | 51 | 89 | 0.0 | 3.0 | 0.00 | 0.01 | 0.01 | 88 | 1006.9 |
| 20260507064214 | 51 | 5 | 2.0 | 2.0 | 0.00 | 0.01 | 0.01 | 88 | 1006.9 |
| 20260507063711 | 51 | 46 | 2.0 | 2.0 | 0.00 | 0.01 | 0.01 | 89 | 1006.9 |
| 20260507063207 | 51 | 357 | 1.0 | 2.0 | 0.00 | 0.01 | 0.01 | 88 | 1006.4 |
| 20260507062704 | 51 | 226 | 2.0 | 2.0 | 0.00 | 0.01 | 0.01 | 87 | 1006.7 |
| 20260507062202 | 51 | 0 | 1.0 | 2.0 | 0.00 | 0.01 | 0.01 | 88 | 1006.4 |
| 20260507061700 | 51 | 111 | 0.0 | 1.0 | 0.00 | 0.01 | 0.01 | 88 | 1006.7 |
| 20260507061157 | 51 | 4 | 1.0 | 2.0 | 0.00 | 0.01 | 0.01 | 89 | 1006.7 |
| 20260507060655 | 51 | 359 | 2.0 | 3.0 | 0.00 | 0.01 | 0.01 | 89 | 1006.8 |
| 20260507060151 | 51 | 93 | 1.0 | 2.0 | 0.00 | 0.01 | 0.01 | 89 | 1006.9 |
| 20260507055647 | 51 | 240 | 0.0 | 3.0 | 0.00 | 0.01 | 0.01 | 90 | 1006.8 |
| 20260507055143 | 52 | 0 | 2.0 | 2.0 | 0.00 | 0.01 | 0.01 | 91 | 1007.1 |
| 20260507054639 | 52 | 279 | 1.0 | 2.0 | 0.00 | 0.01 | 0.01 | 92 | 1007.1 |
| 20260507054136 | 52 | 354 | 0.0 | 2.0 | 0.00 | 0.01 | 0.01 | 92 | 1007.1 |
| 20260507053634 | 52 | 349 | 0.0 | 2.0 | 0.00 | 0.01 | 0.01 | 93 | 1007.2 |
| 20260507053132 | 52 | 23 | 1.0 | 3.0 | 0.00 | 0.01 | 0.01 | 92 | 1006.9 |
| 20260507052630 | 52 | 32 | 2.0 | 2.0 | 0.00 | 0.01 | 0.01 | 92 | 1007.2 |
| 20260507052126 | 52 | 58 | 0.0 | 2.0 | 0.00 | 0.01 | 0.01 | 92 | 1007.4 |
| 20260507051624 | 52 | 226 | 0.0 | 2.0 | 0.00 | 0.01 | 0.01 | 92 | 1007.3 |
| 20260507051121 | 52 | 89 | 0.0 | 2.0 | 0.00 | 0.01 | 0.01 | 92 | 1007.1 |
| 20260507050618 | 52 | 177 | 0.0 | 2.0 | 0.00 | 0.01 | 0.01 | 92 | 1007.0 |
| 20260507050114 | 53 | 4 | 2.0 | 2.0 | 0.00 | 0.01 | 0.01 | 92 | 1006.9 |
| 20260507045611 | 53 | 321 | 0.0 | 2.0 | 0.00 | 0.01 | 0.01 | 93 | 1006.9 |
| 20260507045108 | 53 | 82 | 0.0 | 1.0 | 0.00 | 0.01 | 0.01 | 93 | 1006.9 |
| 20260507044604 | 53 | 37 | 0.0 | 2.0 | 0.00 | 0.01 | 0.01 | 93 | 1006.7 |
| 20260507044102 | 53 | 38 | 2.0 | 2.0 | 0.00 | 0.01 | 0.01 | 94 | 1006.7 |
| 20260507043557 | 53 | 238 | 0.0 | 2.0 | 0.00 | 0.01 | 0.01 | 93 | 1006.9 |
| 20260507043055 | 53 | 357 | 0.0 | 2.0 | 0.02 | 0.01 | 0.01 | 93 | 1007.0 |
| 20260507042550 | 53 | 14 | 1.0 | 3.0 | 0.02 | 0.01 | 0.01 | 92 | 1007.1 |
| 20260507042046 | 54 | 5 | 2.0 | 2.0 | 0.02 | 0.01 | 0.01 | 92 | 1007.3 |
| 20260507041543 | 54 | 4 | 0.0 | 2.0 | 0.05 | 0.01 | 0.01 | 91 | 1007.4 |
| 20260507041040 | 55 | 55 | 1.0 | 2.0 | 0.00 | 0.00 | 0.00 | 91 | 1007.2 |
| 20260507040536 | 55 | 320 | 0.0 | 2.0 | 0.00 | 0.00 | 0.00 | 90 | 1006.9 |
| 20260507040032 | 55 | 330 | 2.0 | 3.0 | 0.00 | 0.32 | 0.32 | 90 | 1007.0 |
| 20260507035529 | 56 | 353 | 1.0 | 4.0 | 0.00 | 0.32 | 0.32 | 91 | 1006.6 |
| 20260507035025 | 56 | 336 | 2.0 | 4.0 | 0.00 | 0.32 | 0.32 | 92 | 1006.8 |
| 20260507034522 | 56 | 331 | 1.0 | 2.0 | 0.00 | 0.32 | 0.32 | 92 | 1006.3 |
| 20260507034020 | 57 | 13 | 1.0 | 2.0 | 0.00 | 0.32 | 0.32 | 92 | 1006.1 |
| 20260507033518 | 57 | 340 | 2.0 | 3.0 | 0.00 | 0.32 | 0.32 | 92 | 1006.1 |
| 20260507033015 | 58 | 61 | 1.0 | 3.0 | 0.00 | 0.32 | 0.32 | 93 | 1006.0 |
| 20260507032512 | 59 | 18 | 1.0 | 4.0 | 0.00 | 0.32 | 0.32 | 94 | 1006.1 |
| 20260507032008 | 59 | 348 | 2.0 | 2.0 | 0.05 | 0.32 | 0.32 | 96 | 1005.7 |
| 20260507031504 | 59 | 83 | 0.0 | 2.0 | 0.05 | 0.32 | 0.32 | 95 | 1005.9 |
| 20260507031002 | 59 | 353 | 2.0 | 2.0 | 0.00 | 0.31 | 0.31 | 95 | 1005.8 |
| 20260507030458 | 59 | 129 | 0.0 | 3.0 | 0.00 | 0.31 | 0.31 | 95 | 1005.8 |
| 20260507025955 | 59 | 243 | 0.0 | 1.0 | 0.00 | 0.31 | 0.31 | 95 | 1005.3 |
| 20260507025453 | 59 | 135 | 2.0 | 3.0 | 0.00 | 0.31 | 0.31 | 94 | 1005.6 |
| 20260507024950 | 59 | 203 | 0.0 | 2.0 | 0.00 | 0.31 | 0.31 | 94 | 1005.7 |
| 20260507024448 | 59 | 323 | 3.0 | 3.0 | 0.00 | 0.31 | 0.31 | 94 | 1005.7 |
| 20260507023943 | 59 | 211 | 0.0 | 2.0 | 0.00 | 0.31 | 0.31 | 94 | 1005.7 |
| 20260507023440 | 59 | 93 | 0.0 | 2.0 | 0.00 | 0.31 | 0.31 | 94 | 1005.7 |
| 20260507022938 | 59 | 226 | 5.0 | 6.0 | 0.00 | 0.31 | 0.31 | 94 | 1005.2 |
| 20260507022435 | 59 | 116 | 0.0 | 2.0 | 0.00 | 0.31 | 0.31 | 94 | 1005.6 |
| 20260507021930 | 59 | 218 | 2.0 | 3.0 | 0.00 | 0.31 | 0.31 | 94 | 1005.3 |
| 20260507021425 | 59 | 157 | 2.0 | 4.0 | 0.00 | 0.31 | 0.31 | 94 | 1005.5 |
| 20260507020924 | 59 | 224 | 1.0 | 3.0 | 0.00 | 0.31 | 0.31 | 94 | 1005.2 |
| 20260507020420 | 59 | 136 | 0.0 | 3.0 | 0.00 | 0.31 | 0.31 | 94 | 1005.3 |
| 20260507015917 | 59 | 301 | 0.0 | 2.0 | 0.00 | 0.31 | 0.31 | 94 | 1005.7 |
| 20260507015415 | 59 | 186 | 2.0 | 2.0 | 0.00 | 0.31 | 0.31 | 94 | 1005.7 |
| 20260507014912 | 59 | 197 | 0.0 | 3.0 | 0.00 | 0.31 | 0.31 | 94 | 1005.5 |
| 20260507014408 | 59 | 169 | 0.0 | 2.0 | 0.00 | 0.31 | 0.31 | 94 | 1005.8 |
| 20260507013904 | 59 | 223 | 2.0 | 3.0 | 0.00 | 0.31 | 0.31 | 94 | 1005.5 |
| 20260507013402 | 59 | 211 | 2.0 | 4.0 | 0.00 | 0.31 | 0.31 | 94 | 1005.8 |
| 20260507012859 | 59 | 180 | 3.0 | 4.0 | 0.00 | 0.31 | 0.31 | 94 | 1005.8 |
| 20260507012355 | 59 | 215 | 3.0 | 3.0 | 0.00 | 0.31 | 0.31 | 94 | 1005.8 |
| 20260507011853 | 59 | 198 | 2.0 | 2.0 | 0.00 | 0.31 | 0.31 | 94 | 1005.6 |
| 20260507011350 | 59 | 139 | 0.0 | 3.0 | 0.00 | 0.31 | 0.31 | 94 | 1005.8 |
| 20260507010849 | 59 | 218 | 2.0 | 5.0 | 0.00 | 0.31 | 0.31 | 94 | 1005.7 |
| 20260507010345 | 59 | 54 | 0.0 | 4.0 | 0.00 | 0.31 | 0.31 | 94 | 1005.7 |
| 20260507005842 | 59 | 243 | 1.0 | 5.0 | 0.00 | 0.31 | 0.31 | 94 | 1005.8 |
| 20260507005339 | 59 | 203 | 0.0 | 4.0 | 0.00 | 0.31 | 0.31 | 94 | 1005.9 |
| 20260507004836 | 59 | 176 | 2.0 | 4.0 | 0.00 | 0.31 | 0.31 | 94 | 1005.6 |
| 20260507004333 | 59 | 70 | 0.0 | 4.0 | 0.00 | 0.31 | 0.31 | 94 | 1005.7 |
| 20260507003830 | 59 | 127 | 2.0 | 4.0 | 0.00 | 0.31 | 0.31 | 94 | 1005.8 |
| 20260507003325 | 59 | 203 | 2.0 | 4.0 | 0.00 | 0.31 | 0.31 | 94 | 1005.6 |
| 20260507002820 | 59 | 190 | 2.0 | 3.0 | 0.00 | 0.31 | 0.31 | 94 | 1005.6 |
| 20260507002317 | 59 | 150 | 2.0 | 4.0 | 0.00 | 0.31 | 0.31 | 95 | 1005.6 |
| 20260507001815 | 59 | 223 | 4.0 | 5.0 | 0.00 | 0.31 | 0.31 | 95 | 1005.6 |
| 20260507001312 | 59 | 180 | 2.0 | 5.0 | 0.00 | 0.31 | 0.31 | 95 | 1005.6 |
| 20260507000808 | 59 | 161 | 0.0 | 3.0 | 0.00 | 0.31 | 0.31 | 95 | 1005.4 |
| 20260507000306 | 59 | 207 | 1.0 | 4.0 | 0.00 | 0.31 | 0.31 | 95 | 1005.7 |
| 20260506235800 | 59 | 191 | 3.0 | 4.0 | 0.02 | 0.31 | 0.31 | 95 | 1005.4 |
| 20260506235256 | 59 | 166 | 2.0 | 4.0 | 0.02 | 0.31 | 0.31 | 95 | 1005.5 |
| 20260506234753 | 59 | 184 | 3.0 | 4.0 | 0.00 | 0.30 | 0.30 | 95 | 1005.3 |
| 20260506234250 | 59 | 136 | 2.0 | 2.0 | 0.02 | 0.30 | 0.30 | 95 | 1005.3 |
| 20260506233748 | 59 | 188 | 2.0 | 3.0 | 0.05 | 0.30 | 0.30 | 95 | 1005.4 |
| 20260506233244 | 59 | 215 | 2.0 | 6.0 | 0.12 | 0.30 | 0.30 | 95 | 1005.6 |
| 20260506232741 | 59 | 198 | 2.0 | 4.0 | 0.14 | 0.29 | 0.29 | 95 | 1005.4 |
| 20260506232235 | 59 | 209 | 1.0 | 5.0 | 0.07 | 0.28 | 0.28 | 94 | 1005.2 |
| 20260506231733 | 60 | 247 | 2.0 | 2.0 | 0.02 | 0.27 | 0.27 | 94 | 1005.6 |
| 20260506231231 | 60 | 262 | 3.0 | 4.0 | 0.07 | 0.26 | 0.26 | 94 | 1005.7 |
| 20260506230728 | 60 | 200 | 3.0 | 3.0 | 0.07 | 0.26 | 0.26 | 94 | 1005.7 |
| 20260506230225 | 60 | 198 | 2.0 | 5.0 | 0.07 | 0.25 | 0.25 | 94 | 1005.9 |
| 20260506225721 | 60 | 167 | 1.0 | 2.0 | 0.09 | 0.24 | 0.24 | 94 | 1005.7 |
| 20260506225218 | 60 | 192 | 2.0 | 4.0 | 0.09 | 0.24 | 0.24 | 94 | 1005.5 |
| 20260506224714 | 60 | 199 | 1.0 | 4.0 | 0.09 | 0.23 | 0.23 | 94 | 1005.7 |
| 20260506224212 | 60 | 210 | 2.0 | 4.0 | 0.14 | 0.22 | 0.22 | 94 | 1005.9 |
| 20260506223708 | 60 | 180 | 0.0 | 4.0 | 0.09 | 0.21 | 0.21 | 94 | 1005.8 |
| 20260506223204 | 60 | 136 | 0.0 | 6.0 | 0.05 | 0.20 | 0.20 | 94 | 1005.9 |
| 20260506222701 | 60 | 192 | 2.0 | 4.0 | 0.05 | 0.19 | 0.19 | 94 | 1005.6 |
| 20260506222156 | 60 | 180 | 2.0 | 5.0 | 0.05 | 0.19 | 0.19 | 93 | 1005.6 |
| 20260506221655 | 60 | 177 | 2.0 | 4.0 | 0.02 | 0.18 | 0.18 | 93 | 1006.0 |
| 20260506221153 | 60 | 195 | 3.0 | 4.0 | 0.00 | 0.18 | 0.18 | 92 | 1006.0 |
| 20260506220649 | 60 | 202 | 2.0 | 7.0 | 0.00 | 0.18 | 0.18 | 92 | 1006.1 |
| 20260506220144 | 60 | 273 | 2.0 | 6.0 | 0.00 | 0.18 | 0.18 | 93 | 1006.3 |
| 20260506215641 | 60 | 224 | 0.0 | 4.0 | 0.00 | 0.18 | 0.18 | 93 | 1005.9 |
| 20260506215136 | 60 | 31 | 2.0 | 3.0 | 0.00 | 0.18 | 0.18 | 93 | 1006.2 |
| 20260506214634 | 60 | 139 | 2.0 | 5.0 | 0.02 | 0.18 | 0.18 | 92 | 1006.0 |
| 20260506214131 | 60 | 196 | 1.0 | 6.0 | 0.00 | 0.18 | 0.18 | 92 | 1006.3 |
| 20260506213629 | 60 | 165 | 2.0 | 5.0 | 0.00 | 0.18 | 0.18 | 93 | 1006.3 |
| 20260506213126 | 60 | 83 | 0.0 | 2.0 | 0.02 | 0.18 | 0.18 | 93 | 1006.4 |
| 20260506212624 | 60 | 156 | 2.0 | 3.0 | 0.05 | 0.18 | 0.18 | 93 | 1006.6 |
| 20260506212118 | 61 | 131 | 2.0 | 3.0 | 0.05 | 0.17 | 0.17 | 92 | 1006.4 |
| 20260506211614 | 61 | 203 | 1.0 | 6.0 | 0.05 | 0.17 | 0.17 | 91 | 1006.7 |
| 20260506211111 | 61 | 162 | 1.0 | 4.0 | 0.09 | 0.17 | 0.17 | 91 | 1007.0 |
| 20260506210608 | 61 | 216 | 3.0 | 4.0 | 0.09 | 0.16 | 0.16 | 91 | 1006.8 |
| 20260506210104 | 61 | 201 | 5.0 | 5.0 | 0.09 | 0.15 | 0.15 | 92 | 1006.7 |
| 20260506205601 | 61 | 193 | 2.0 | 2.0 | 0.07 | 0.14 | 0.14 | 91 | 1006.9 |
| 20260506205056 | 61 | 130 | 0.0 | 4.0 | 0.07 | 0.13 | 0.13 | 91 | 1006.8 |
| 20260506204554 | 61 | 209 | 2.0 | 3.0 | 0.07 | 0.13 | 0.13 | 91 | 1007.0 |
| 20260506204051 | 62 | 25 | 0.0 | 3.0 | 0.07 | 0.12 | 0.12 | 90 | 1006.9 |
| 20260506203550 | 62 | 216 | 2.0 | 3.0 | 0.09 | 0.11 | 0.11 | 90 | 1007.0 |
| 20260506203046 | 62 | 166 | 2.0 | 3.0 | 0.12 | 0.11 | 0.11 | 89 | 1006.9 |
| 20260506202544 | 62 | 184 | 2.0 | 4.0 | 0.09 | 0.09 | 0.09 | 89 | 1006.7 |
| 20260506202040 | 62 | 247 | 1.0 | 4.0 | 0.07 | 0.09 | 0.09 | 88 | 1006.9 |
| 20260506201538 | 62 | 206 | 1.0 | 2.0 | 0.12 | 0.08 | 0.08 | 88 | 1006.7 |
| 20260506201034 | 63 | 178 | 0.0 | 4.0 | 0.09 | 0.07 | 0.07 | 86 | 1006.8 |
| 20260506200530 | 63 | 125 | 3.0 | 4.0 | 0.02 | 0.06 | 0.06 | 85 | 1006.7 |
| 20260506200027 | 63 | 203 | 4.0 | 4.0 | 0.05 | 0.06 | 0.06 | 85 | 1006.8 |
| 20260506195524 | 63 | 130 | 0.0 | 2.0 | 0.05 | 0.06 | 0.06 | 84 | 1006.6 |
| 20260506195020 | 64 | 182 | 0.0 | 4.0 | 0.05 | 0.05 | 0.05 | 83 | 1006.7 |
| 20260506194518 | 64 | 174 | 2.0 | 3.0 | 0.05 | 0.05 | 0.05 | 81 | 1006.9 |
| 20260506194014 | 64 | 171 | 2.0 | 5.0 | 0.05 | 0.04 | 0.04 | 81 | 1006.7 |
| 20260506193511 | 65 | 191 | 2.0 | 3.0 | 0.05 | 0.04 | 0.04 | 80 | 1006.9 |
| 20260506193008 | 65 | 206 | 0.0 | 4.0 | 0.05 | 0.04 | 0.04 | 76 | 1006.6 |
| 20260506192505 | 66 | 173 | 1.0 | 2.0 | 0.07 | 0.03 | 0.03 | 74 | 1006.9 |
| 20260506192001 | 67 | 152 | 2.0 | 4.0 | 0.02 | 0.02 | 0.02 | 71 | 1007.0 |
| 20260506191458 | 67 | 225 | 1.0 | 4.0 | 0.02 | 0.02 | 0.02 | 69 | 1006.9 |
| 20260506190954 | 68 | 220 | 1.0 | 5.0 | 0.02 | 0.02 | 0.02 | 66 | 1006.9 |
| 20260506190452 | 68 | 238 | 4.0 | 6.0 | 0.02 | 0.02 | 0.02 | 66 | 1007.1 |
| 20260506185948 | 69 | 186 | 1.0 | 3.0 | 0.00 | 0.01 | 0.01 | 65 | 1006.9 |
| 20260506185445 | 69 | 245 | 4.0 | 6.0 | 0.02 | 0.01 | 0.01 | 62 | 1006.8 |
| 20260506184942 | 69 | 230 | 2.0 | 3.0 | 0.00 | 0.01 | 0.01 | 62 | 1006.7 |
| 20260506184439 | 69 | 201 | 1.0 | 3.0 | 0.00 | 0.01 | 0.01 | 62 | 1006.9 |
| 20260506183936 | 69 | 209 | 2.0 | 4.0 | 0.00 | 0.01 | 0.01 | 60 | 1006.9 |
| 20260506183431 | 69 | 218 | 0.0 | 2.0 | 0.00 | 0.01 | 0.01 | 62 | 1006.8 |
| 20260506182929 | 69 | 56 | 1.0 | 3.0 | 0.02 | 0.01 | 0.01 | 61 | 1006.9 |
| 20260506182426 | 69 | 207 | 3.0 | 3.0 | 0.02 | 0.01 | 0.01 | 61 | 1006.9 |